Location: ActonStarParty
(42.4766°N, 71.4538°W)
Time: 20:55:55
(UTC-04:00)

Cosmos 1300 - Visible Passes

Search period start: 21 April 2018 00:00
Search period end: 01 May 2018 00:00
Orbit: 514 x 515 km, 82.5° (Epoch: 21 April)

Date Brightness Start Highest point End Pass type
(mag) Time Alt. Az. Time Alt. Az. Time Alt. Az.
23 Apr 6.7 05:20:42 10° NE 05:22:03 11° ENE 05:23:23 10° E visible
23 Apr 6.5 20:48:00 10° W 20:48:52 11° WNW 20:49:44 10° NW visible
24 Apr 6.3 20:31:34 10° W 20:33:23 13° WNW 20:35:13 10° NW visible
25 Apr 6.1 20:15:33 10° WSW 20:17:55 16° WNW 20:20:17 10° NNW visible
30 Apr 4.7 05:06:42 10° N 05:10:14 34° ENE 05:13:44 10° SE visible
